Tracking 30995 objects as of 5-Jul-2025
HD Live streaming from Space Station
objects crossing your sky now

IRIDIUM 69

Track IRIDIUM 69 now!
10-day predictions
IRIDIUM 69 is classified as:


NORAD ID: 25319
Int'l Code: 1998-026A
Perigee: 760.8 km
Apogee: 764.0 km
Inclination: 86.4 °
Period: 99.9 minutes
Semi major axis: 7133 km
RCS: 4.3416 m2 (large)
Launch date: May 2, 1998
Source: United States (US)
Launch site: Taiyaun Space Center, China (TSC)
Your satellite tracking list
FENGYUN 2H AKM
Track 1 satellite(s)




NASA's NSSDC Master Catalog

Two Line Element Set (TLE):
1 25319U 98026A   25186.24699865  .00000393  00000-0  11626-3 0  9990
2 25319  86.3965  87.7923 0002285  21.5168 338.6127 14.40982090425665
Source of the keplerian elements: AFSPC